Location: ??
(31.9467°N, 34.8903°E)
Time: 18:00:09
(UTC+00:00)

Cosmos 967 Rocket - Pass Details

Date: 29 October 2020
Orbit: 953 x 984 km, 65.8° (Epoch: 30 November)

Event Time Altitude Azimuth Distance (km) Brightness Sun altitude
Rises 16:39:34 0° 206° (SSW) 3,673 7.9 -23.1°
Reaches altitude 10° 16:42:08 10° 207° (SSW) 2,727 7.2 -23.6°
Maximum altitude 16:48:32 85° 295° (WNW) 987 4.4 -25.0°
Enters shadow 16:51:55 30° 23° (NNE) 1,669 5.5 -25.7°
